• In Romania
  • List of Countries
  • For 7 days
  • Water Temperature
  • Satellite Maps
  • Weather Map
  • Weather Widgets
  • user-avatar
    Login

    Hourly Weather Berat

    Today, 21 January, Sunday

    Time Temperature Precipitation Wind Pressure Humidity
    00:00 +8°C° 0.1 mm 2 mps 741 mmHg 94%
    01:00 +8°C° 0 mm 2 mps 741 mmHg 93%
    02:00 +7°C° 0 mm 2 mps 741 mmHg 93%
    03:00 +7°C° 0 mm 2 mps 740 mmHg 92%
    04:00 +7°C° 0 mm 2 mps 740 mmHg 91%
    05:00 +7°C° 0 mm 3 mps 739 mmHg 91%
    06:00 +7°C° 0 mm 3 mps 739 mmHg 90%
    07:00 +7°C° 0 mm 3 mps 739 mmHg 89%
    08:00 +8°C° 0.1 mm 3 mps 738 mmHg 87%
    09:00 +8°C° 0.1 mm 4 mps 738 mmHg 84%
    10:00 +10°C° 0.1 mm 4 mps 737 mmHg 81%
    11:00 +11°C° 0.2 mm 4 mps 737 mmHg 80%
    12:00 +11°C° 0.2 mm 4 mps 736 mmHg 79%
    13:00 +10°C° 0.2 mm 5 mps 735 mmHg 78%
    14:00 +11°C° 1.2 mm 4 mps 735 mmHg 82%
    15:00 +10°C° 1.2 mm 4 mps 734 mmHg 87%
    16:00 +9°C° 1.2 mm 3 mps 734 mmHg 92%
    17:00 +9°C° 1.7 mm 3 mps 733 mmHg 92%
    18:00 +9°C° 1.7 mm 3 mps 733 mmHg 93%
    19:00 +9°C° 1.7 mm 3 mps 733 mmHg 94%
    20:00 +9°C° 0.9 mm 3 mps 733 mmHg 94%
    21:00 +9°C° 0.9 mm 3 mps 733 mmHg 95%
    22:00 +9°C° 0.9 mm 3 mps 733 mmHg 95%
    23:00 +7°C° 0.3 mm 4 mps 734 mmHg 95%

    Tomorrow, 22 January, Monday

    Time Temperature Precipitation Wind Pressure Humidity
    00:00 +7°C° 0.3 mm 4 mps 734 mmHg 95%
    01:00 +7°C° 0.3 mm 4 mps 735 mmHg 94%
    02:00 +6°C° 0.3 mm 4 mps 735 mmHg 93%
    03:00 +6°C° 0.3 mm 4 mps 735 mmHg 91%
    04:00 +5°C° 0.3 mm 4 mps 736 mmHg 89%
    05:00 +5°C° 0 mm 4 mps 737 mmHg 88%
    06:00 +4°C° 0 mm 4 mps 737 mmHg 87%
    07:00 +3°C° 0 mm 4 mps 738 mmHg 86%
    08:00 +4°C° 0 mm 4 mps 739 mmHg 79%
    09:00 +5°C° 0 mm 4 mps 739 mmHg 73%
    10:00 +6°C° 0 mm 4 mps 740 mmHg 67%
    11:00 +6°C° 0 mm 5 mps 740 mmHg 65%
    12:00 +6°C° 0 mm 5 mps 740 mmHg 63%
    13:00 +7°C° 0 mm 5 mps 740 mmHg 61%
    14:00 +6°C° 0 mm 5 mps 740 mmHg 63%
    15:00 +6°C° 0 mm 4 mps 741 mmHg 64%
    16:00 +5°C° 0 mm 3 mps 741 mmHg 65%
    17:00 +4°C° 0 mm 3 mps 742 mmHg 68%
    18:00 +4°C° 0 mm 3 mps 742 mmHg 71%
    19:00 +4°C° 0 mm 2 mps 743 mmHg 74%
    20:00 +3°C° 0 mm 2 mps 743 mmHg 74%
    21:00 +3°C° 0 mm 2 mps 744 mmHg 73%
    22:00 +3°C° 0 mm 2 mps 744 mmHg 73%
    23:00 +3°C° 0 mm 2 mps 744 mmHg 73%

    Day after tomorrow, 23 January, Tuesday

    Time Temperature Precipitation Wind Pressure Humidity
    00:00 +3°C° 0 mm 2 mps 744 mmHg 73%
    01:00 +3°C° 0 mm 2 mps 745 mmHg 73%
    02:00 +3°C° 0 mm 2 mps 745 mmHg 73%
    03:00 +3°C° 0 mm 2 mps 745 mmHg 72%
    04:00 +3°C° 0 mm 2 mps 745 mmHg 72%
    05:00 +3°C° 0 mm 2 mps 745 mmHg 71%
    06:00 +3°C° 0 mm 2 mps 746 mmHg 71%
    07:00 +3°C° 0 mm 2 mps 746 mmHg 70%
    08:00 +4°C° 0 mm 2 mps 747 mmHg 64%
    09:00 +6°C° 0 mm 2 mps 747 mmHg 59%
    10:00 +7°C° 0 mm 2 mps 748 mmHg 53%
    11:00 +8°C° 0 mm 2 mps 748 mmHg 50%
    12:00 +9°C° 0 mm 2 mps 748 mmHg 46%
    13:00 +10°C° 0 mm 2 mps 748 mmHg 43%
    14:00 +9°C° 0 mm 2 mps 748 mmHg 46%
    15:00 +9°C° 0 mm 2 mps 748 mmHg 50%
    16:00 +8°C° 0 mm 2 mps 748 mmHg 53%
    17:00 +7°C° 0 mm 2 mps 749 mmHg 55%
    18:00 +5°C° 0 mm 3 mps 749 mmHg 57%
    19:00 +4°C° 0 mm 3 mps 750 mmHg 59%
    20:00 +3°C° 0 mm 3 mps 750 mmHg 59%
    21:00 +3°C° 0 mm 3 mps 751 mmHg 59%
    22:00 +3°C° 0 mm 3 mps 751 mmHg 60%
    23:00 +2°C° 0 mm 3 mps 751 mmHg 59%

    24 January, Wednesday

    Time Temperature Precipitation Wind Pressure Humidity
    00:00 +2°C° 0 mm 3 mps 752 mmHg 59%
    01:00 +2°C° 0 mm 3 mps 752 mmHg 58%
    02:00 +2°C° 0 mm 3 mps 752 mmHg 57%
    03:00 +2°C° 0 mm 3 mps 752 mmHg 57%
    04:00 +2°C° 0 mm 3 mps 752 mmHg 56%
    05:00 +1°C° 0 mm 3 mps 752 mmHg 55%
    06:00 +1°C° 0 mm 3 mps 753 mmHg 55%
    07:00 +1°C° 0 mm 3 mps 753 mmHg 54%
    08:00 +3°C° 0 mm 3 mps 753 mmHg 50%
    09:00 +4°C° 0 mm 3 mps 754 mmHg 45%
    10:00 +7°C° 0 mm 3 mps 754 mmHg 40%
    11:00 +8°C° 0 mm 2 mps 754 mmHg 38%
    12:00 +8°C° 0 mm 2 mps 754 mmHg 36%
    13:00 +9°C° 0 mm 2 mps 754 mmHg 35%
    14:00 +9°C° 0 mm 2 mps 754 mmHg 39%
    15:00 +9°C° 0 mm 1 mps 753 mmHg 43%
    16:00 +8°C° 0 mm 1 mps 753 mmHg 47%
    17:00 +6°C° 0 mm 2 mps 754 mmHg 50%
    18:00 +5°C° 0 mm 2 mps 754 mmHg 52%
    19:00 +4°C° 0 mm 2 mps 754 mmHg 54%
    20:00 +4°C° 0 mm 2 mps 754 mmHg 54%
    21:00 +3°C° 0 mm 2 mps 754 mmHg 55%
    22:00 +3°C° 0 mm 2 mps 754 mmHg 56%
    23:00 +3°C° 0 mm 2 mps 754 mmHg 56%

    25 January, Thursday

    Time Temperature Precipitation Wind Pressure Humidity
    00:00 +3°C° 0 mm 2 mps 754 mmHg 55%
    01:00 +3°C° 0 mm 2 mps 754 mmHg 54%
    02:00 +3°C° 0 mm 2 mps 754 mmHg 53%
    03:00 +3°C° 0 mm 2 mps 753 mmHg 52%
    04:00 +3°C° 0 mm 2 mps 753 mmHg 50%
    05:00 +3°C° 0 mm 2 mps 753 mmHg 49%
    06:00 +4°C° 0 mm 1 mps 753 mmHg 47%
    07:00 +4°C° 0 mm 1 mps 753 mmHg 46%
    08:00 +6°C° 0 mm 1 mps 753 mmHg 42%
    09:00 +8°C° 0 mm 1 mps 753 mmHg 39%
    10:00 +9°C° 0 mm 1 mps 753 mmHg 36%
    11:00 +10°C° 0 mm 1 mps 752 mmHg 36%
    12:00 +11°C° 0 mm 1 mps 752 mmHg 36%
    13:00 +11°C° 0 mm 1 mps 751 mmHg 36%
    14:00 +11°C° 0 mm 1 mps 751 mmHg 41%
    15:00 +10°C° 0 mm 1 mps 751 mmHg 46%
    16:00 +9°C° 0 mm 1 mps 750 mmHg 51%
    17:00 +8°C° 0 mm 1 mps 750 mmHg 53%
    18:00 +7°C° 0 mm 1 mps 750 mmHg 55%
    19:00 +6°C° 0 mm 1 mps 750 mmHg 57%
    20:00 +6°C° 0 mm 1 mps 750 mmHg 57%
    21:00 +6°C° 0 mm 1 mps 750 mmHg 56%
    22:00 +5°C° 0 mm 1 mps 750 mmHg 55%
    23:00 +5°C° 0 mm 1 mps 750 mmHg 55%

    26 January, Friday

    Time Temperature Precipitation Wind Pressure Humidity
    00:00 +5°C° 0 mm 1 mps 750 mmHg 54%
    01:00 +5°C° 0 mm 1 mps 750 mmHg 54%
    02:00 +5°C° 0 mm 1 mps 749 mmHg 53%
    03:00 +5°C° 0 mm 1 mps 749 mmHg 52%
    04:00 +5°C° 0 mm 1 mps 749 mmHg 52%
    05:00 +5°C° 0 mm 1 mps 749 mmHg 51%
    06:00 +5°C° 0 mm 1 mps 749 mmHg 50%
    07:00 +5°C° 0 mm 1 mps 749 mmHg 50%
    08:00 +7°C° 0 mm 1 mps 749 mmHg 47%
    09:00 +9°C° 0 mm 1 mps 750 mmHg 45%
    10:00 +10°C° 0 mm 1 mps 750 mmHg 42%
    11:00 +10°C° 0 mm 2 mps 750 mmHg 43%
    12:00 +12°C° 0 mm 2 mps 749 mmHg 44%
    13:00 +12°C° 0 mm 2 mps 749 mmHg 45%
    14:00 +12°C° 0 mm 2 mps 749 mmHg 50%
    15:00 +10°C° 0 mm 2 mps 749 mmHg 55%
    16:00 +11°C° 0 mm 1 mps 749 mmHg 60%
    17:00 +10°C° 0 mm 1 mps 749 mmHg 63%
    18:00 +8°C° 0 mm 1 mps 750 mmHg 66%
    19:00 +7°C° 0 mm 1 mps 750 mmHg 69%
    20:00 +6°C° 0 mm 2 mps 750 mmHg 69%
    21:00 +6°C° 0 mm 2 mps 751 mmHg 70%
    22:00 +6°C° 0 mm 2 mps 751 mmHg 70%
    23:00 +6°C° 0 mm 2 mps 751 mmHg 70%
    Show more